Regional Weather Roundup
Issued by NWS

Home | Current Version | Previous Version | Text Only | Print | Product List | Glossary On
Versions: 1 2 3 4 5 6 7 8 9 10 11 12 13 14 15 16 17 18 19 20 21 22 23 24 25 26 27 28 29 30 31 32 33 34 35 36 37 38 39 40 41 42 43 44 45 46 47 48 49 50
000
ASUS44 KJAN 161110
RWRMS

MISSISSIPPI HOURLY WEATHER ROUNDUP
NATIONAL WEATHER SERVICE JACKSON MS
600 AM CDT TUE SEP 16 2014

NOTE: "FAIR: INDICATES FEW OR NO CLOUDS BELOW 12,000 FEET WITH NO
SIGNIFICANT WEATHER AND/OR OBSTRUCTIONS TO VISIBILITY.

MSZ001>002-007>008-010>013-018>021-025>028-034>036-161200-
NORTHWEST MISSISSIPPI

CITY           SKY/WX    TMP DP  RH WIND       PRES   REMARKS
CLARKSDALE     MOCLDY    68  68 100 CALM      30.11S
CLEVELAND      FAIR      69  69 100 CALM      30.10R
GREENWOOD      CLOUDY    71  69  93 N5        30.10R
GREENVILLE     LGT RAIN  70  67  90 CALM      30.09F
GRENADA        FAIR      70  68  94 CALM      30.11S
OLIVE BRANCH   CLEAR     66  66 100 CALM      30.11S
OXFORD         FAIR      68  66  94 CALM      30.13S
TUNICA         PTSUNNY   68  66  94 S3        30.12S
$$

MSZ003>006-009-014>017-022>024-029>033-037>039-161200-
NORTHEAST MISSISSIPPI

CITY           SKY/WX    TMP DP  RH WIND       PRES   REMARKS
COLUMBUS AFB   LGT RAIN  72  71  96 NW2       30.10R
CORINTH        FOG       64  63  94 CALM      30.11R VSB 1/4
GOLDN TRIANGLE CLOUDY    73  66  78 N5        30.10R
STARKVILLE     CLOUDY    70  68  94 CALM      30.10R
TUPELO         CLOUDY    72  67  84 CALM      30.11R
$$

MSZ040-058-161200-
CENTRAL MISSISSIPPI

CITY           SKY/WX    TMP DP  RH WIND       PRES   REMARKS
JACKSON INTL   MOCLDY    72  70  93 N5        30.08S
JACKSON HAWKNS CLEAR     73  69  87 CALM      30.09S
MERIDIAN KEY   PTCLDY    71  70  96 CALM      30.08R
MERIDIAN NAS   PTCLDY    73  70  90 NW3       30.08S
RAYMOND        FAIR      68  64  88 CALM      30.08F HAZE
VICKSBURG      MOCLDY    72  68  87 N3        30.08S
$$

MSZ059>079-161200-
SOUTH MISSISSIPPI

CITY           SKY/WX    TMP DP  RH WIND       PRES   REMARKS
BROOKHAVEN     FAIR      73  73 100 N6        30.10R FOG
HATTIESBURG    PTCLDY    73  71  93 NE3       30.08R
MCCOMB         MOCLDY    75  73  93 CALM      30.07R
NATCHEZ        CLOUDY    72  70  94 N5        30.08S
PINE BELT      PTCLDY    70  66  88 CALM      30.09R
$$

MSZ080>082-161200-
COASTAL MISSISSIPPI

CITY           SKY/WX    TMP DP  RH WIND       PRES   REMARKS
BILOXI         CLEAR     75  73  91 NE3       30.05R
PASCAGOULA     FOG       74  74 100 N3        30.05S VSB 1/4
GULFPORT       CLEAR     75  72  90 CALM      30.04S
$$



USA.gov is the U.S. government's official web portal to all federal, state and local government web resources and services.